Tallulah, LA

8:23 PM CST on February 10, 2016 (GMT -0600)
Vicksburg Tallulah Regional

Weather History for KTVR - March, 2014

Change the Weather History Date:

Monday, March 31, 2014

  Actual Average Record
Temperature  
Mean Temperature 62 °F 61 °F  
Max Temperature 82 °F 72 °F 87 °F (1963)
Min Temperature 41 °F 49 °F 28 °F (1987)
Degree Days  
Heating Degree Days 3 6  
Month to date heating degree days 368 265  
Since 1 July heating degree days 2777 2241  
Cooling Degree Days 0 1  
Month to date cooling degree days 7 23  
Year to date cooling degree days 14 32  
Growing Degree Days 12 (Base 50)    
Moisture  
Dew Point 42 °F    
Average Humidity 57    
Maximum Humidity 96    
Minimum Humidity 17    
Precipitation  
Precipitation T in 0.15 in 2.86 in (1961)
Month to date precipitation 5.93 5.03  
Year to date precipitation 11.35 15.37  
Sea Level Pressure  
Sea Level Pressure 30.09 in    
Wind  
Wind Speed 8 mph (South)    
Max Wind Speed 18 mph    
Max Gust Speed 23 mph    
Visibility 10 miles    
Events      
T = Trace of Precipitation, MM = Missing Value Source: NWS Daily Summary

Daily Weather History Graph

Daily Weather History Graph

Search for Another Location

Airport or City:

Trip Planner

Search our weather history database for the weather conditions in past years. The results will help you decide how hot, cold, wet, or windy it might be!

Date:

Astronomy

Mar. 31, 2014 Rise Set
Actual Time 6:53 AM CDT 7:23 PM CDT
Civil Twilight 6:28 AM CDT 7:48 PM CDT
Nautical Twilight 6:00 AM CDT 8:17 PM CDT
Astronomical Twilight 5:30 AM CDT 8:46 PM CDT
Moon 7:20 AM CDT (3/31) 8:37 PM CDT (3/31)
Length of Visible Light 13h 19m
Length of Day
12h 29m
New Moon, 1% of the Moon is Illuminated
Mar 31
New Moon
Apr 7
First Quarter
Apr 15
Full
Apr 22
Last Quarter
Apr 29
New

Hourly Weather History & Observations

Time (CDT) Temp. Windchill Dew Point Humidity Pressure Visibility Wind Dir Wind Speed Gust Speed Precip Events Conditions
12:53 AM 48.0 °F - 46.0 °F 93% 30.14 in 10.0 mi Calm Calm - N/A   Clear
1:53 AM 46.0 °F - 44.1 °F 93% 30.14 in 10.0 mi Calm Calm - N/A   Clear
2:53 AM 44.1 °F 41.5 °F 42.1 °F 93% 30.12 in 9.0 mi SE 4.6 mph - N/A   Clear
3:53 AM 45.0 °F - 43.0 °F 93% 30.11 in 10.0 mi Calm Calm - N/A   Clear
4:53 AM 41.0 °F 38.0 °F 39.9 °F 96% 30.11 in 9.0 mi South 4.6 mph - N/A   Clear
5:53 AM 43.0 °F 41.3 °F 41.0 °F 93% 30.12 in 10.0 mi SE 3.5 mph - N/A   Clear
6:53 AM 42.1 °F 40.2 °F 41.0 °F 96% 30.13 in 10.0 mi ESE 3.5 mph - N/A   Clear
7:53 AM 48.9 °F - 46.0 °F 90% 30.14 in 10.0 mi SE 3.5 mph - N/A   Clear
8:53 AM 55.9 °F - 48.0 °F 75% 30.16 in 10.0 mi SE 4.6 mph - N/A   Clear
9:53 AM 60.1 °F - 48.9 °F 67% 30.16 in 10.0 mi SSE 6.9 mph - N/A   Clear
10:53 AM 64.9 °F - 45.0 °F 48% 30.15 in 10.0 mi SSE 11.5 mph - N/A   Clear
11:53 AM 70.0 °F - 43.0 °F 38% 30.14 in 10.0 mi SSE 12.7 mph - N/A   Clear
12:53 PM 73.9 °F - 42.1 °F 32% 30.10 in 10.0 mi South 9.2 mph - N/A   Clear
1:53 PM 78.1 °F - 37.9 °F 24% 30.07 in 10.0 mi South 11.5 mph - N/A   Clear
2:53 PM 80.1 °F - 35.1 °F 20% 30.04 in 10.0 mi South 17.3 mph 23.0 mph N/A   Clear
3:53 PM 82.0 °F - 34.0 °F 18% 30.02 in 10.0 mi SSW 12.7 mph - N/A   Clear
4:53 PM 81.0 °F - 32.0 °F 17% 29.99 in 10.0 mi South 13.8 mph 21.9 mph N/A   Clear
5:53 PM 80.1 °F - 34.0 °F 19% 30.00 in 10.0 mi South 13.8 mph 17.3 mph N/A   Clear
6:53 PM 75.0 °F - 37.9 °F 26% 30.01 in 10.0 mi WSW 8.1 mph - N/A   Clear
7:53 PM 68.0 °F - 39.9 °F 36% 30.03 in 10.0 mi SW 3.5 mph - N/A   Clear
8:53 PM 71.1 °F - 43.0 °F 36% 30.07 in 10.0 mi SW 4.6 mph - N/A   Scattered Clouds
9:53 PM 69.1 °F - 46.0 °F 44% 30.08 in 10.0 mi SSE 10.4 mph - N/A   Mostly Cloudy
10:53 PM 66.0 °F - 48.0 °F 52% 30.06 in 10.0 mi South 13.8 mph - 0.00 in   Partly Cloudy
11:53 PM 64.0 °F - 51.1 °F 63% 30.09 in 10.0 mi South 8.1 mph - N/A   Clear